This demonstration page uses our WeatherBlox Daily Observations layout. Learn more.

Left ArrowRight Arrow

38.20091, -84.87328

Hourly Observations for February 1, 2018

Temp ( °F °C ) Dew Point ( °F °C ) Humidity (%) Winds ( mph kmh ) Pressure ( in mb ) Visibility ( mi km ) Precip ( " mm )
12:53 am 00:53 Cloudy 49 9.4 22 -5.6 35 35 SW 13 20 29.94 1014 10 16 0.00 0.00
1:53 am 01:53 Clear 47 8.3 23 -5 39 39 SSW 10 17 29.93 1014 10 16 0.00 0.00
2:53 am 02:53 Clear 47 8.3 23 -5 39 39 SSW 15 24 29.93 1014 10 16 0.00 0.00
3:53 am 03:53 Clear 47 8.3 24 -4.4 41 41 SSW 12 19 29.93 1013 10 16 0.00 0.00
4:53 am 04:53 Clear 46 7.8 25 -3.9 44 44 SSW 14 22 29.91 1013 10 16 0.00 0.00
5:53 am 05:53 Clear 46 7.8 27 -2.8 47 47 SSW 10 17 29.91 1013 10 16 0.00 0.00
6:53 am 06:53 Clear 46 7.8 29 -1.7 51 51 SW 9 15 29.91 1013 10 16 0.00 0.00
7:53 am 07:53 Sunny 45 7.2 30 -1.1 56 56 SW 7 11 29.93 1014 10 16 0.00 0.00
8:53 am 08:53 Mostly Cloudy 47 8.3 31 -0.6 54 54 SW 6 9 29.95 1014 10 16 0.00 0.00
9:53 am 09:53 Cloudy 48 8.9 32 0 54 54 SW 9 15 29.96 1015 10 16 0.00 0.00
10:53 am 10:53 Cloudy 48 8.9 33 0.6 56 56 W 7 11 29.98 1015 10 16 0.00 0.00
11:53 am 11:53 Cloudy 46 7.8 34 1.1 63 63 W 6 9 30.00 1016 10 16 0.00 0.03
12:53 pm 12:53 Cloudy 46 7.8 34 1.1 63 63 WSW 3 6 29.97 1015 10 16 0.00 0.00
1:53 pm 13:53 Cloudy 46 7.8 30 -1.1 54 54 WNW 9 15 29.98 1015 10 16 0.00 0.00
2:53 pm 14:53 Cloudy with Light Rain 41 5 32 0 70 70 WNW 8 13 30.01 1016 9 14 0.02 0.51
3:14 pm 15:14 Cloudy with Light Rain 39 3.9 32 0 76 76 NW 13 20 30.03 1017 9 14 0.01 0.25
3:41 pm 15:41 Cloudy with Light Rain 38 3.3 33 0.6 83 83 WNW 9 15 30.06 1018 7 11 0.04 1.02
3:53 pm 15:53 Cloudy with Light Rain 38 3.3 33 0.6 83 83 NW 8 13 30.03 1017 6 10 0.05 1.27
4:21 pm 16:21 Cloudy with Light Rain 36 2.2 32 0 86 86 WNW 10 17 30.06 1018 10 16 0.03 0.76
4:53 pm 16:53 Cloudy with Light Snow 35 1.7 31 -0.6 85 85 WNW 10 17 30.08 1019 5 8 0.05 1.27
5:23 pm 17:23 Cloudy with Light Snow 34 1.1 31 -0.6 89 89 WNW 7 11 30.12 1020 2 3 0.02 0.51
5:30 pm 17:30 Cloudy with Light Snow 34 1.1 30 -1.1 85 85 WNW 8 13 30.12 1020 2 2 0.03 0.76
5:51 pm 17:51 Cloudy with Light Snow 34 1 30 -1 87 87 W 8 13 30.12 1020 1 2 0.04 1.02
5:53 pm 17:53 Cloudy with Light Snow 34 1.1 30 -1.1 85 85 WNW 7 11 30.10 1019 1 2 0.04 1.02
6:08 pm 18:08 Cloudy with Light Snow 34 1.1 30 -1.1 85 85 W 7 11 30.12 1020 3 4 0.00 0.03
6:20 pm 18:20 Cloudy with Light Snow 34 1.1 30 -1.1 85 85 WNW 7 11 30.12 1020 3 5 0.01 0.25
6:35 pm 18:35 Cloudy with Light Snow 33 0.6 30 -1.1 89 89 WNW 7 11 30.15 1021 3 4 0.01 0.25
6:44 pm 18:44 Cloudy with Light Snow 33 0.6 30 -1.1 89 89 WNW 7 11 30.18 1022 3 5 0.01 0.25
6:53 pm 18:53 Cloudy with Light Snow 33 0.6 30 -1.1 89 89 W 7 11 30.12 1020 3 5 0.01 0.25
7:00 pm 19:00 Cloudy with Light Snow 34 1.1 30 -1.1 85 85 WNW 6 9 30.18 1022 4 6 0.00 0.03
7:07 pm 19:07 Cloudy with Light Snow 34 1.1 30 -1.1 85 85 WNW 7 11 30.18 1022 4 6 0.00 0.03
7:14 pm 19:14 Cloudy with Light Snow 33 0.6 29 -1.7 85 85 WNW 12 19 30.18 1022 4 6 0.00 0.03
7:23 pm 19:23 Cloudy with Light Snow 33 0.6 27 -2.8 78 78 WNW 13 20 30.18 1022 8 13 0.00 0.03
7:53 pm 19:53 Cloudy 32 0 26 -3.3 79 79 WNW 10 17 30.16 1021 10 16 0.00 0.03
8:53 pm 20:53 Clear 30 -1.1 22 -5.6 72 72 WNW 7 11 30.19 1022 10 16 0.00 0.00
9:15 pm 21:15 Mostly Cloudy 29 -1.7 22 -5.6 75 75 WNW 9 15 30.24 1024 10 16 0.00 0.00
9:53 pm 21:53 Cloudy 28 -2.2 19 -7.2 69 69 NW 8 13 30.22 1023 10 16 0.00 0.00
10:53 pm 22:53 Cloudy 27 -2.8 17 -8.3 66 66 WNW 10 17 30.25 1025 10 16 0.00 0.00
11:53 pm 23:53 Cloudy 24 -4.4 14 -10 65 65 NNW 15 24 30.29 1026 10 16 0.00 0.00

Powered by AerisWeather